Regional Weather Roundup
Issued by NWS

Home | Current Version | Previous Version | Graphics & Text | Print | Product List | Glossary Off
Versions: 1 2 3 4 5 6 7 8 9 10 11 12 13 14 15 16 17 18 19 20 21 22 23 24 25 26 27 28 29 30 31 32 33 34 35 36 37 38 39 40 41 42 43 44 45 46 47 48 49 50

000
ASUS43 KTOP 221308
RWRKS

WEATHER ROUNDUP FOR KANSAS
NATIONAL WEATHER SERVICE GOODLAND KS
800 AM CDT TUE JUL 22 2014

NOTE:  "FAIR" INDICATES FEW OR NO CLOUDS BELOW 12,000 FEET WITH NO
SIGNIFICANT WEATHER AND/OR OBSTRUCTIONS TO VISIBILITY.

KSZ001>006-013>018-027>032-041>047-221400-
NORTHWEST KANSAS

CITY           SKY/WX    TMP DP  RH WIND       PRES   REMARKS
GOODLAND       SUNNY     72  60  66 MISG      30.17R
HAYS           SUNNY     72  61  68 N3        30.11R
HILL CITY      SUNNY     70  62  76 CALM      30.10R
RUSSELL        SUNNY     73  68  84 CALM      30.08R
$$

KSZ061>065-074>080-084>089-221400-
SOUTHWEST KANSAS

CITY           SKY/WX    TMP DP  RH WIND       PRES   REMARKS
DODGE CITY     SUNNY     74  66  76 SW7       30.12R
ELKHART          N/A     70  64  81 S8          N/A
GARDEN CITY    MOSUNNY   71  66  84 SE6       30.11R
GREAT BEND     SUNNY     73  68  83 S6        30.08R
LIBERAL        MOSUNNY   72  64  78 CALM      30.14R
PRATT          MOSUNNY   73  66  78 S3        30.11R
$$

KSZ066>073-081>083-090>101-221400-
SOUTHEAST KANSAS

CITY           SKY/WX    TMP DP  RH WIND       PRES   REMARKS
CHANUTE        SUNNY     76  72  87 S10       30.09R
COFFEYVILLE    MOSUNNY   75  72  90 S6        30.09R
HUTCHINSON     SUNNY     77  71  82 S8        30.07R
MEDICINE LODGE   N/A     76  71  85 SE6       30.08R
NEWTON         MOSUNNY   79  70  73 SW10      30.10R
PARSONS        SUNNY     75  70  84 S6        30.10R
WICHITA INTL   MOSUNNY   77  74  90 S8        30.07R
WICHITA JABRA  MOSUNNY   78  74  87 S13       30.07R
WICHITA MCCONL MOSUNNY   76  76 100 S9        30.08R
WINFIELD       MOSUNNY   77  75  93 S6        30.10R FOG
$$

KSZ007>012-019>026-033>040-048>060-102>105-221400-
NORTHEAST KANSAS

CITY           SKY/WX    TMP DP  RH WIND       PRES   REMARKS
CONCORDIA      MOSUNNY   81  70  69 W9        30.04R
EMPORIA        MOSUNNY   75  74  96 S8        30.05R FOG
LAWRENCE       MOSUNNY   77  74  90 S7        30.02F FOG
MANHATTAN      SUNNY     78  74  87 SW6       30.01R FOG
MARYSVILLE     SUNNY     77  73  88 SW3       30.03R
OLATHE IND     SUNNY     76  73  91 S10       30.05S FOG
OLATHE EXE     SUNNY     75  72  90 S8        30.04S FOG
SALINA         SUNNY     78  72  81 SW12      30.04R
TOPEKA BILLARD MOSUNNY   80  75  84 S7        30.02R
TOPEKA FORBES  SUNNY     78  74  87 S9        30.03R FOG
$$


USA.gov is the U.S. government's official web portal to all federal, state and local government web resources and services.